User: anonymous   Login
Location: La Brionne
(46.1728°N, 1.7849°E)
Time: 20:35:20
(UTC+00:00)
Language:

Cosmos 1544 Rocket - Orbit

View from above orbital plane
View from above orbital plane
View from above satellite
View from above satellite

Ground track
Ground track

The orbit data is extracted from the following two-line orbital elements,

1 14820U 84027B   21271.41639890  .00000120  00000-0  11662-4 0  9992
2 14820  82.5431 324.0238 0017347 301.4748  58.4772 14.83718051  6783
Epoch (UTC): 28 September 2021 09:59:36
Eccentricity: 0.0017347
inclination: 82.5431°
perigee height: 605 km
apogee height: 630 km
right ascension of ascending node: 324.0238°
argument of perigee: 301.4748°
revolutions per day: 14.83718051
mean anomaly at epoch: 58.4772°
orbit number at epoch: 678

The dashed part of the orbit path shows where the satellite is in the earth's shadow,  

DLR